contact:dominique.lefevre@mio.osupytheas.fr, maurice.libes@osupytheas.fr, didier.mallarino@osupytheas.fr
Project:EMSO http://www.emso-fr.org/EMSO-France
Depth: 2436.0 m
Title:EMSO Ligure Ouest : Data MII capteur MICROCAT
DateTime_Computer,Latitude,Longitude,Temperature,Conductivity,Pressure,DateTime_Instrument
DateTime_Computer,Latitude,Longitude,degC,S m-1,dbar,DateTime_Instrument
2023-04-15T00:01:15Z,42.805,6.029,13.3019,4.60081,2470.684,2023-4-15T02:04:12Z
2023-04-15T00:04:19Z,42.805,6.029,13.3020,4.60081,2470.679,2023-4-15T02:07:15Z
2023-04-15T00:07:22Z,42.805,6.029,13.3019,4.60078,2470.693,2023-4-15T02:10:18Z
2023-04-15T00:10:25Z,42.805,6.029,13.3025,4.60077,2470.693,2023-4-15T02:13:21Z
2023-04-15T00:13:28Z,42.805,6.029,13.3025,4.60084,2470.684,2023-4-15T02:16:24Z
2023-04-15T00:16:31Z,42.805,6.029,13.3016,4.60082,2470.693,2023-4-15T02:19:27Z
2023-04-15T00:19:34Z,42.805,6.029,13.3021,4.60082,2470.73,2023-4-15T02:22:31Z
2023-04-15T00:22:37Z,42.805,6.029,13.3021,4.60081,2470.707,2023-4-15T02:25:34Z
2023-04-15T00:25:40Z,42.805,6.029,13.3015,4.60078,2470.684,2023-4-15T02:28:37Z
2023-04-15T00:28:43Z,42.805,6.029,13.3019,4.60078,2470.707,2023-4-15T02:31:40Z
2023-04-15T00:31:46Z,42.805,6.029,13.3019,4.60079,2470.693,2023-4-15T02:34:43Z
2023-04-15T00:34:49Z,42.805,6.029,13.3021,4.60080,2470.67,2023-4-15T02:37:46Z
2023-04-15T00:37:52Z,42.805,6.029,13.3021,4.60080,2470.717,2023-4-15T02:40:49Z
2023-04-15T00:40:56Z,42.805,6.029,13.3021,4.60081,2470.717,2023-4-15T02:43:52Z
2023-04-15T00:43:59Z,42.805,6.029,13.3021,4.60077,2470.693,2023-4-15T02:46:55Z
2023-04-15T00:47:02Z,42.805,6.029,13.3017,4.60079,2470.707,2023-4-15T02:49:58Z
2023-04-15T00:50:05Z,42.805,6.029,13.3020,4.60077,2470.73,2023-4-15T02:53:01Z
2023-04-15T00:53:08Z,42.805,6.029,13.3024,4.60081,2470.707,2023-4-15T02:56:04Z
2023-04-15T00:56:11Z,42.805,6.029,13.3021,4.60079,2470.707,2023-4-15T02:59:08Z
2023-04-15T00:59:14Z,42.805,6.029,13.3020,4.60081,2470.717,2023-4-15T03:02:11Z
2023-04-15T01:02:17Z,42.805,6.029,13.3021,4.60081,2470.74,2023-4-15T03:05:14Z
2023-04-15T01:05:20Z,42.805,6.029,13.3012,4.60077,2470.707,2023-4-15T03:08:17Z
2023-04-15T01:08:23Z,42.805,6.029,13.3018,4.60078,2470.717,2023-4-15T03:11:20Z
2023-04-15T01:11:26Z,42.805,6.029,13.3024,4.60086,2470.763,2023-4-15T03:14:23Z
2023-04-15T01:14:29Z,42.805,6.029,13.3018,4.60078,2470.73,2023-4-15T03:17:26Z
2023-04-15T01:17:33Z,42.805,6.029,13.3019,4.60082,2470.717,2023-4-15T03:20:29Z
2023-04-15T01:20:36Z,42.805,6.029,13.3019,4.60078,2470.74,2023-4-15T03:23:32Z
2023-04-15T01:23:39Z,42.805,6.029,13.3021,4.60079,2470.74,2023-4-15T03:26:35Z
2023-04-15T01:26:42Z,42.805,6.029,13.3018,4.60078,2470.763,2023-4-15T03:29:38Z
2023-04-15T01:29:45Z,42.805,6.029,13.3021,4.60079,2470.73,2023-4-15T03:32:41Z
2023-04-15T01:32:48Z,42.805,6.029,13.3019,4.60081,2470.73,2023-4-15T03:35:45Z
2023-04-15T01:35:51Z,42.805,6.029,13.3019,4.60080,2470.74,2023-4-15T03:38:48Z
2023-04-15T01:38:54Z,42.805,6.029,13.3019,4.60077,2470.763,2023-4-15T03:41:51Z
2023-04-15T01:41:57Z,42.805,6.029,13.3019,4.60078,2470.717,2023-4-15T03:44:54Z
2023-04-15T01:45:00Z,42.805,6.029,13.3017,4.60079,2470.717,2023-4-15T03:47:57Z
2023-04-15T01:48:03Z,42.805,6.029,13.3022,4.60078,2470.777,2023-4-15T03:51:00Z
2023-04-15T01:51:06Z,42.805,6.029,13.3021,4.60079,2470.75,2023-4-15T03:54:03Z
2023-04-15T01:54:10Z,42.805,6.029,13.3021,4.60078,2470.75,2023-4-15T03:57:06Z
2023-04-15T01:57:13Z,42.805,6.029,13.3024,4.60078,2470.763,2023-4-15T04:00:09Z
2023-04-15T02:00:16Z,42.805,6.029,13.3019,4.60079,2470.74,2023-4-15T04:03:12Z
2023-04-15T02:03:19Z,42.805,6.029,13.3021,4.60079,2470.726,2023-4-15T04:06:15Z
2023-04-15T02:06:22Z,42.805,6.029,13.3021,4.60078,2470.763,2023-4-15T04:09:18Z
2023-04-15T02:09:25Z,42.805,6.029,13.3022,4.60078,2470.763,2023-4-15T04:12:22Z
2023-04-15T02:12:28Z,42.805,6.029,13.3019,4.60083,2470.763,2023-4-15T04:15:25Z
2023-04-15T02:15:31Z,42.805,6.029,13.3023,4.60080,2470.787,2023-4-15T04:18:28Z
2023-04-15T02:18:34Z,42.805,6.029,13.3021,4.60080,2470.787,2023-4-15T04:21:31Z
2023-04-15T02:21:37Z,42.805,6.029,13.3021,4.60081,2470.763,2023-4-15T04:24:34Z
2023-04-15T02:24:40Z,42.805,6.029,13.3021,4.60078,2470.717,2023-4-15T04:27:37Z
2023-04-15T02:27:43Z,42.805,6.029,13.3021,4.60079,2470.777,2023-4-15T04:30:40Z
2023-04-15T02:30:47Z,42.805,6.029,13.3022,4.60079,2470.787,2023-4-15T04:33:43Z
2023-04-15T02:33:50Z,42.805,6.029,13.3018,4.60078,2470.787,2023-4-15T04:36:46Z
2023-04-15T02:36:53Z,42.805,6.029,13.3023,4.60093,2470.763,2023-4-15T04:39:49Z
2023-04-15T02:39:56Z,42.805,6.029,13.3021,4.60080,2470.763,2023-4-15T04:42:52Z
2023-04-15T02:42:59Z,42.805,6.029,13.3020,4.60080,2470.74,2023-4-15T04:45:55Z
2023-04-15T02:46:02Z,42.805,6.029,13.3018,4.60084,2470.777,2023-4-15T04:48:59Z
2023-04-15T02:49:05Z,42.805,6.029,13.3019,4.60078,2470.777,2023-4-15T04:52:02Z
2023-04-15T02:52:08Z,42.805,6.029,13.3019,4.60082,2470.754,2023-4-15T04:55:05Z
2023-04-15T02:55:11Z,42.805,6.029,13.3017,4.60084,2470.763,2023-4-15T04:58:08Z
2023-04-15T02:58:14Z,42.805,6.029,13.3020,4.60079,2470.763,2023-4-15T05:01:11Z
2023-04-15T03:01:17Z,42.805,6.029,13.3020,4.60081,2470.787,2023-4-15T05:04:14Z
2023-04-15T03:04:20Z,42.805,6.029,13.3020,4.60086,2470.763,2023-4-15T05:07:17Z
2023-04-15T03:07:24Z,42.805,6.029,13.3019,4.60088,2470.777,2023-4-15T05:10:20Z
2023-04-15T03:10:27Z,42.805,6.029,13.3019,4.60084,2470.787,2023-4-15T05:13:23Z
2023-04-15T03:13:30Z,42.805,6.029,13.3022,4.60084,2470.763,2023-4-15T05:16:26Z
2023-04-15T03:16:33Z,42.805,6.029,13.3020,4.60082,2470.763,2023-4-15T05:19:29Z
2023-04-15T03:19:36Z,42.805,6.029,13.3021,4.60081,2470.777,2023-4-15T05:22:32Z
2023-04-15T03:22:39Z,42.805,6.029,13.3017,4.60080,2470.763,2023-4-15T05:25:36Z
2023-04-15T03:25:42Z,42.805,6.029,13.3019,4.60085,2470.74,2023-4-15T05:28:39Z
2023-04-15T03:28:45Z,42.805,6.029,13.3019,4.60084,2470.787,2023-4-15T05:31:42Z
2023-04-15T03:31:48Z,42.805,6.029,13.3020,4.60084,2470.726,2023-4-15T05:34:45Z
2023-04-15T03:34:51Z,42.805,6.029,13.3020,4.60080,2470.726,2023-4-15T05:37:48Z
2023-04-15T03:37:54Z,42.805,6.029,13.3022,4.60082,2470.763,2023-4-15T05:40:51Z
2023-04-15T03:40:57Z,42.805,6.029,13.3025,4.60084,2470.777,2023-4-15T05:43:54Z
2023-04-15T03:44:01Z,42.805,6.029,13.3018,4.60085,2470.777,2023-4-15T05:46:57Z
2023-04-15T03:47:04Z,42.805,6.029,13.3021,4.60081,2470.787,2023-4-15T05:50:00Z
2023-04-15T03:50:07Z,42.805,6.029,13.3023,4.60082,2470.777,2023-4-15T05:53:03Z
2023-04-15T03:53:10Z,42.805,6.029,13.3019,4.60080,2470.787,2023-4-15T05:56:06Z
2023-04-15T03:56:13Z,42.805,6.029,13.3019,4.60082,2470.787,2023-4-15T05:59:09Z
2023-04-15T03:59:16Z,42.805,6.029,13.3019,4.60081,2470.787,2023-4-15T06:02:13Z
2023-04-15T04:02:19Z,42.805,6.029,13.3019,4.60084,2470.74,2023-4-15T06:05:16Z
2023-04-15T04:05:22Z,42.805,6.029,13.3021,4.60084,2470.763,2023-4-15T06:08:19Z
2023-04-15T04:08:25Z,42.805,6.029,13.3022,4.60082,2470.763,2023-4-15T06:11:22Z
2023-04-15T04:11:28Z,42.805,6.029,13.3020,4.60078,2470.8,2023-4-15T06:14:25Z
2023-04-15T04:14:31Z,42.805,6.029,13.3022,4.60084,2470.787,2023-4-15T06:17:28Z
2023-04-15T04:17:34Z,42.805,6.029,13.3019,4.60083,2470.763,2023-4-15T06:20:31Z
2023-04-15T04:20:37Z,42.805,6.029,13.3020,4.60079,2470.763,2023-4-15T06:23:34Z
2023-04-15T04:23:41Z,42.805,6.029,13.3014,4.60078,2470.777,2023-4-15T06:26:37Z
2023-04-15T04:26:44Z,42.805,6.029,13.3019,4.60079,2470.787,2023-4-15T06:29:40Z
2023-04-15T04:29:47Z,42.805,6.029,13.3014,4.60082,2470.763,2023-4-15T06:32:43Z
2023-04-15T04:32:50Z,42.805,6.029,13.3022,4.60086,2470.81,2023-4-15T06:35:46Z
2023-04-15T04:35:53Z,42.805,6.029,13.3019,4.60086,2470.787,2023-4-15T06:38:50Z
2023-04-15T04:38:56Z,42.805,6.029,13.3021,4.60079,2470.763,2023-4-15T06:41:53Z
2023-04-15T04:41:59Z,42.805,6.029,13.3021,4.60079,2470.81,2023-4-15T06:44:56Z
2023-04-15T04:45:02Z,42.805,6.029,13.3021,4.60080,2470.763,2023-4-15T06:47:59Z
2023-04-15T04:48:05Z,42.805,6.029,13.3019,4.60084,2470.763,2023-4-15T06:51:02Z
2023-04-15T04:51:08Z,42.805,6.029,13.3017,4.60080,2470.787,2023-4-15T06:54:05Z
2023-04-15T04:54:11Z,42.805,6.029,13.3019,4.60085,2470.763,2023-4-15T06:57:08Z
2023-04-15T04:57:15Z,42.805,6.029,13.3020,4.60082,2470.763,2023-4-15T07:00:11Z
2023-04-15T05:00:18Z,42.805,6.029,13.3024,4.60081,2470.763,2023-4-15T07:03:14Z
2023-04-15T05:03:21Z,42.805,6.029,13.3021,4.60079,2470.74,2023-4-15T07:06:17Z
2023-04-15T05:06:24Z,42.805,6.029,13.3019,4.60082,2470.81,2023-4-15T07:09:20Z
2023-04-15T05:09:27Z,42.805,6.029,13.3021,4.60082,2470.777,2023-4-15T07:12:23Z
2023-04-15T05:12:30Z,42.805,6.029,13.3021,4.60080,2470.81,2023-4-15T07:15:27Z
2023-04-15T05:15:33Z,42.805,6.029,13.3019,4.60081,2470.8,2023-4-15T07:18:30Z
2023-04-15T05:18:36Z,42.805,6.029,13.3017,4.60081,2470.8,2023-4-15T07:21:33Z
2023-04-15T05:21:39Z,42.805,6.029,13.3014,4.60083,2470.787,2023-4-15T07:24:36Z
2023-04-15T05:24:42Z,42.805,6.029,13.3018,4.60081,2470.763,2023-4-15T07:27:39Z
2023-04-15T05:27:45Z,42.805,6.029,13.3021,4.60082,2470.8,2023-4-15T07:30:42Z
2023-04-15T05:30:48Z,42.805,6.029,13.3019,4.60079,2470.763,2023-4-15T07:33:45Z
2023-04-15T05:33:52Z,42.805,6.029,13.3018,4.60077,2470.74,2023-4-15T07:36:48Z
2023-04-15T05:36:55Z,42.805,6.029,13.3022,4.60079,2470.763,2023-4-15T07:39:51Z
2023-04-15T05:39:58Z,42.805,6.029,13.3020,4.60079,2470.824,2023-4-15T07:42:54Z
2023-04-15T05:43:01Z,42.805,6.029,13.3018,4.60079,2470.763,2023-4-15T07:45:57Z
2023-04-15T05:46:04Z,42.805,6.029,13.3018,4.60079,2470.763,2023-4-15T07:49:01Z
2023-04-15T05:49:07Z,42.805,6.029,13.3019,4.60077,2470.754,2023-4-15T07:52:04Z
2023-04-15T05:52:10Z,42.805,6.029,13.3020,4.60077,2470.754,2023-4-15T07:55:07Z
2023-04-15T05:55:13Z,42.805,6.029,13.3020,4.60079,2470.763,2023-4-15T07:58:10Z
2023-04-15T05:58:16Z,42.805,6.029,13.3024,4.60078,2470.74,2023-4-15T08:01:13Z
2023-04-15T06:01:19Z,42.805,6.029,13.3020,4.60077,2470.74,2023-4-15T08:04:16Z
2023-04-15T06:04:22Z,42.805,6.029,13.3017,4.60079,2470.777,2023-4-15T08:07:19Z
2023-04-15T06:07:25Z,42.805,6.029,13.3015,4.60078,2470.754,2023-4-15T08:10:22Z
2023-04-15T06:10:29Z,42.805,6.029,13.3020,4.60078,2470.73,2023-4-15T08:13:25Z
2023-04-15T06:13:32Z,42.805,6.029,13.3019,4.60076,2470.754,2023-4-15T08:16:28Z
2023-04-15T06:16:35Z,42.805,6.029,13.3018,4.60077,2470.74,2023-4-15T08:19:31Z
2023-04-15T06:19:38Z,42.805,6.029,13.3019,4.60076,2470.74,2023-4-15T08:22:34Z
2023-04-15T06:22:41Z,42.805,6.029,13.3018,4.60075,2470.717,2023-4-15T08:25:38Z
2023-04-15T06:25:44Z,42.805,6.029,13.3015,4.60076,2470.693,2023-4-15T08:28:41Z
2023-04-15T06:28:47Z,42.805,6.029,13.3021,4.60076,2470.74,2023-4-15T08:31:44Z
2023-04-15T06:31:51Z,42.805,6.029,13.3021,4.60075,2470.754,2023-4-15T08:34:47Z
2023-04-15T06:34:54Z,42.805,6.029,13.3019,4.60076,2470.73,2023-4-15T08:37:51Z
2023-04-15T06:37:57Z,42.805,6.029,13.3019,4.60076,2470.726,2023-4-15T08:40:54Z
2023-04-15T06:41:00Z,42.805,6.029,13.3019,4.60074,2470.74,2023-4-15T08:43:57Z
2023-04-15T06:44:03Z,42.805,6.029,13.3017,4.60075,2470.717,2023-4-15T08:47:00Z
2023-04-15T06:47:06Z,42.805,6.029,13.3020,4.60074,2470.717,2023-4-15T08:50:03Z
2023-04-15T06:50:09Z,42.805,6.029,13.3022,4.60079,2470.717,2023-4-15T08:53:06Z
2023-04-15T06:53:12Z,42.805,6.029,13.3020,4.60076,2470.74,2023-4-15T08:56:09Z
2023-04-15T06:56:15Z,42.805,6.029,13.3021,4.60078,2470.693,2023-4-15T08:59:12Z
2023-04-15T06:59:19Z,42.805,6.029,13.3020,4.60077,2470.717,2023-4-15T09:02:15Z
2023-04-15T07:02:22Z,42.805,6.029,13.3020,4.60077,2470.717,2023-4-15T09:05:18Z
2023-04-15T07:05:25Z,42.805,6.029,13.3017,4.60077,2470.717,2023-4-15T09:08:21Z
2023-04-15T07:08:28Z,42.805,6.029,13.3019,4.60078,2470.74,2023-4-15T09:11:24Z
2023-04-15T07:11:31Z,42.805,6.029,13.3020,4.60077,2470.74,2023-4-15T09:14:28Z
2023-04-15T07:14:34Z,42.805,6.029,13.3019,4.60075,2470.679,2023-4-15T09:17:31Z
2023-04-15T07:17:37Z,42.805,6.029,13.3020,4.60077,2470.74,2023-4-15T09:20:34Z
2023-04-15T07:20:40Z,42.805,6.029,13.3020,4.60076,2470.684,2023-4-15T09:23:37Z
2023-04-15T07:23:43Z,42.805,6.029,13.3020,4.60074,2470.717,2023-4-15T09:26:40Z
2023-04-15T07:26:46Z,42.805,6.029,13.3019,4.60078,2470.693,2023-4-15T09:29:43Z
2023-04-15T07:29:49Z,42.805,6.029,13.3021,4.60076,2470.684,2023-4-15T09:32:46Z
2023-04-15T07:32:52Z,42.805,6.029,13.3023,4.60075,2470.717,2023-4-15T09:35:49Z
2023-04-15T07:35:56Z,42.805,6.029,13.3016,4.60078,2470.693,2023-4-15T09:38:52Z
2023-04-15T07:38:59Z,42.805,6.029,13.3018,4.60077,2470.693,2023-4-15T09:41:55Z
2023-04-15T07:42:02Z,42.805,6.029,13.3019,4.60079,2470.693,2023-4-15T09:44:58Z
2023-04-15T07:45:05Z,42.805,6.029,13.3020,4.60077,2470.717,2023-4-15T09:48:01Z
2023-04-15T07:48:08Z,42.805,6.029,13.3021,4.60079,2470.684,2023-4-15T09:51:05Z
2023-04-15T07:51:11Z,42.805,6.029,13.3021,4.60075,2470.646,2023-4-15T09:54:08Z
2023-04-15T07:54:14Z,42.805,6.029,13.3021,4.60075,2470.656,2023-4-15T09:57:11Z
2023-04-15T07:57:17Z,42.805,6.029,13.3020,4.60076,2470.717,2023-4-15T10:00:14Z
2023-04-15T08:00:20Z,42.805,6.029,13.3021,4.60076,2470.646,2023-4-15T10:03:17Z
2023-04-15T08:03:23Z,42.805,6.029,13.3018,4.60078,2470.67,2023-4-15T10:06:20Z
2023-04-15T08:06:26Z,42.805,6.029,13.3019,4.60078,2470.693,2023-4-15T10:09:23Z
2023-04-15T08:09:29Z,42.805,6.029,13.3021,4.60079,2470.67,2023-4-15T10:12:26Z
2023-04-15T08:12:33Z,42.805,6.029,13.3016,4.60078,2470.693,2023-4-15T10:15:29Z
2023-04-15T08:15:36Z,42.805,6.029,13.3019,4.60078,2470.684,2023-4-15T10:18:32Z
2023-04-15T08:18:39Z,42.805,6.029,13.3023,4.60074,2470.624,2023-4-15T10:21:35Z
2023-04-15T08:21:42Z,42.805,6.029,13.3019,4.60076,2470.67,2023-4-15T10:24:39Z
2023-04-15T08:24:45Z,42.805,6.029,13.3014,4.60074,2470.693,2023-4-15T10:27:42Z
2023-04-15T08:27:48Z,42.805,6.029,13.3020,4.60075,2470.661,2023-4-15T10:30:45Z
2023-04-15T08:30:49Z,42.805,6.029,13.3021,4.60079,2470.67,2023-4-15T10:33:46Z
2023-04-15T08:33:52Z,42.805,6.029,13.3017,4.60076,2470.67,2023-4-15T10:36:49Z
2023-04-15T08:36:56Z,42.805,6.029,13.3021,4.60077,2470.67,2023-4-15T10:39:52Z
2023-04-15T08:39:59Z,42.805,6.029,13.3019,4.60076,2470.684,2023-4-15T10:42:55Z
2023-04-15T08:43:02Z,42.805,6.029,13.3021,4.60077,2470.661,2023-4-15T10:45:59Z
2023-04-15T08:46:05Z,42.805,6.029,13.3018,4.60074,2470.646,2023-4-15T10:49:02Z
2023-04-15T08:49:08Z,42.805,6.029,13.3022,4.60077,2470.646,2023-4-15T10:52:05Z
2023-04-15T08:52:11Z,42.805,6.029,13.3021,4.60077,2470.67,2023-4-15T10:55:08Z
2023-04-15T08:55:14Z,42.805,6.029,13.3019,4.60074,2470.661,2023-4-15T10:58:11Z
2023-04-15T08:58:17Z,42.805,6.029,13.3019,4.60079,2470.646,2023-4-15T11:01:14Z
2023-04-15T09:01:20Z,42.805,6.029,13.3022,4.60076,2470.67,2023-4-15T11:04:17Z
2023-04-15T09:04:23Z,42.805,6.029,13.3019,4.60076,2470.67,2023-4-15T11:07:20Z
2023-04-15T09:07:26Z,42.805,6.029,13.3020,4.60074,2470.661,2023-4-15T11:10:23Z
2023-04-15T09:10:29Z,42.805,6.029,13.3020,4.60075,2470.624,2023-4-15T11:13:26Z
2023-04-15T09:13:33Z,42.805,6.029,13.3023,4.60076,2470.684,2023-4-15T11:16:29Z
2023-04-15T09:16:36Z,42.805,6.029,13.3021,4.60077,2470.624,2023-4-15T11:19:32Z
2023-04-15T09:19:39Z,42.805,6.029,13.3019,4.60076,2470.624,2023-4-15T11:22:35Z
2023-04-15T09:22:42Z,42.805,6.029,13.3018,4.60074,2470.661,2023-4-15T11:25:39Z
2023-04-15T09:25:45Z,42.805,6.029,13.3020,4.60080,2470.661,2023-4-15T11:28:42Z
2023-04-15T09:28:48Z,42.805,6.029,13.3022,4.60077,2470.646,2023-4-15T11:31:45Z
2023-04-15T09:31:51Z,42.805,6.029,13.3018,4.60075,2470.646,2023-4-15T11:34:48Z
2023-04-15T09:34:54Z,42.805,6.029,13.3020,4.60078,2470.661,2023-4-15T11:37:51Z
2023-04-15T09:37:57Z,42.805,6.029,13.3019,4.60072,2470.646,2023-4-15T11:40:54Z
2023-04-15T09:41:00Z,42.805,6.029,13.3019,4.60079,2470.661,2023-4-15T11:43:57Z
2023-04-15T09:44:03Z,42.805,6.029,13.3022,4.60072,2470.624,2023-4-15T11:47:00Z
2023-04-15T09:47:06Z,42.805,6.029,13.3019,4.60078,2470.624,2023-4-15T11:50:03Z
2023-04-15T09:50:10Z,42.805,6.029,13.3022,4.60075,2470.646,2023-4-15T11:53:06Z
2023-04-15T09:53:13Z,42.805,6.029,13.3020,4.60074,2470.624,2023-4-15T11:56:09Z
2023-04-15T09:56:16Z,42.805,6.029,13.3018,4.60088,2470.637,2023-4-15T11:59:12Z
2023-04-15T09:59:19Z,42.805,6.029,13.3017,4.60074,2470.624,2023-4-15T12:02:16Z
2023-04-15T10:02:22Z,42.805,6.029,13.3019,4.60077,2470.661,2023-4-15T12:05:19Z
2023-04-15T10:05:25Z,42.805,6.029,13.3020,4.60081,2470.624,2023-4-15T12:08:22Z
2023-04-15T10:08:28Z,42.805,6.029,13.3016,4.60078,2470.637,2023-4-15T12:11:25Z
2023-04-15T10:11:31Z,42.805,6.029,13.3018,4.60077,2470.646,2023-4-15T12:14:28Z
2023-04-15T10:14:34Z,42.805,6.029,13.3023,4.60081,2470.646,2023-4-15T12:17:31Z
2023-04-15T10:17:37Z,42.805,6.029,13.3024,4.60079,2470.6,2023-4-15T12:20:34Z
2023-04-15T10:20:40Z,42.805,6.029,13.3021,4.60074,2470.661,2023-4-15T12:23:37Z
2023-04-15T10:23:44Z,42.805,6.029,13.3021,4.60080,2470.646,2023-4-15T12:26:40Z
2023-04-15T10:26:47Z,42.805,6.029,13.3019,4.60075,2470.624,2023-4-15T12:29:43Z
2023-04-15T10:29:50Z,42.805,6.029,13.3018,4.60074,2470.637,2023-4-15T12:32:46Z
2023-04-15T10:32:53Z,42.805,6.029,13.3020,4.60079,2470.624,2023-4-15T12:35:50Z
2023-04-15T10:35:56Z,42.805,6.029,13.3018,4.60077,2470.624,2023-4-15T12:38:53Z
2023-04-15T10:38:59Z,42.805,6.029,13.3019,4.60072,2470.624,2023-4-15T12:41:56Z
2023-04-15T10:42:02Z,42.805,6.029,13.3022,4.60072,2470.637,2023-4-15T12:44:59Z
2023-04-15T10:45:05Z,42.805,6.029,13.3023,4.60075,2470.624,2023-4-15T12:48:02Z
2023-04-15T10:48:08Z,42.805,6.029,13.3015,4.60074,2470.637,2023-4-15T12:51:05Z
2023-04-15T10:51:11Z,42.805,6.029,13.3019,4.60073,2470.624,2023-4-15T12:54:08Z
2023-04-15T10:54:14Z,42.805,6.029,13.3021,4.60074,2470.624,2023-4-15T12:57:11Z
2023-04-15T10:57:17Z,42.805,6.029,13.3020,4.60074,2470.646,2023-4-15T13:00:14Z
2023-04-15T11:00:21Z,42.805,6.029,13.3020,4.60075,2470.661,2023-4-15T13:03:17Z
2023-04-15T11:03:24Z,42.805,6.029,13.3021,4.60075,2470.646,2023-4-15T13:06:20Z
2023-04-15T11:06:27Z,42.805,6.029,13.3020,4.60077,2470.624,2023-4-15T13:09:23Z
2023-04-15T11:09:30Z,42.805,6.029,13.3021,4.60072,2470.6,2023-4-15T13:12:27Z
2023-04-15T11:12:33Z,42.805,6.029,13.3019,4.60077,2470.637,2023-4-15T13:15:30Z
2023-04-15T11:15:36Z,42.805,6.029,13.3020,4.60075,2470.661,2023-4-15T13:18:33Z
2023-04-15T11:18:39Z,42.805,6.029,13.3019,4.60078,2470.646,2023-4-15T13:21:36Z
2023-04-15T11:21:42Z,42.805,6.029,13.3016,4.60075,2470.624,2023-4-15T13:24:39Z
2023-04-15T11:24:45Z,42.805,6.029,13.3019,4.60076,2470.646,2023-4-15T13:27:42Z
2023-04-15T11:27:48Z,42.805,6.029,13.3020,4.60079,2470.646,2023-4-15T13:30:45Z
2023-04-15T11:30:51Z,42.805,6.029,13.3016,4.60075,2470.646,2023-4-15T13:33:48Z
2023-04-15T11:33:54Z,42.805,6.029,13.3019,4.60072,2470.637,2023-4-15T13:36:51Z
2023-04-15T11:36:58Z,42.805,6.029,13.3018,4.60077,2470.637,2023-4-15T13:39:54Z
2023-04-15T11:40:01Z,42.805,6.029,13.3019,4.60076,2470.577,2023-4-15T13:42:57Z
2023-04-15T11:43:04Z,42.805,6.029,13.3023,4.60079,2470.661,2023-4-15T13:46:01Z
2023-04-15T11:46:07Z,42.805,6.029,13.3019,4.60077,2470.661,2023-4-15T13:49:04Z
2023-04-15T11:49:10Z,42.805,6.029,13.3021,4.60076,2470.624,2023-4-15T13:52:07Z
2023-04-15T11:52:13Z,42.805,6.029,13.3020,4.60076,2470.684,2023-4-15T13:55:10Z
2023-04-15T11:55:16Z,42.805,6.029,13.3019,4.60080,2470.646,2023-4-15T13:58:13Z
2023-04-15T11:58:19Z,42.805,6.029,13.3020,4.60078,2470.67,2023-4-15T14:01:16Z
2023-04-15T12:01:22Z,42.805,6.029,13.3019,4.60076,2470.646,2023-4-15T14:04:19Z
2023-04-15T12:04:25Z,42.805,6.029,13.3019,4.60077,2470.637,2023-4-15T14:07:22Z
2023-04-15T12:07:28Z,42.805,6.029,13.3017,4.60079,2470.624,2023-4-15T14:10:25Z
2023-04-15T12:10:31Z,42.805,6.029,13.3022,4.60072,2470.637,2023-4-15T14:13:28Z
2023-04-15T12:13:35Z,42.805,6.029,13.3017,4.60075,2470.624,2023-4-15T14:16:31Z
2023-04-15T12:16:38Z,42.805,6.029,13.3019,4.60076,2470.624,2023-4-15T14:19:34Z
2023-04-15T12:19:41Z,42.805,6.029,13.3018,4.60077,2470.646,2023-4-15T14:22:38Z
2023-04-15T12:22:44Z,42.805,6.029,13.3021,4.60081,2470.624,2023-4-15T14:25:41Z
2023-04-15T12:25:47Z,42.805,6.029,13.3018,4.60074,2470.661,2023-4-15T14:28:44Z
2023-04-15T12:28:50Z,42.805,6.029,13.3017,4.60075,2470.67,2023-4-15T14:31:47Z
2023-04-15T12:31:53Z,42.805,6.029,13.3021,4.60074,2470.67,2023-4-15T14:34:50Z
2023-04-15T12:34:56Z,42.805,6.029,13.3018,4.60074,2470.684,2023-4-15T14:37:53Z
2023-04-15T12:37:59Z,42.805,6.029,13.3020,4.60076,2470.684,2023-4-15T14:40:56Z
2023-04-15T12:41:02Z,42.805,6.029,13.3020,4.60075,2470.614,2023-4-15T14:43:59Z
2023-04-15T12:44:05Z,42.805,6.029,13.3018,4.60079,2470.661,2023-4-15T14:47:02Z
2023-04-15T12:47:08Z,42.805,6.029,13.3020,4.60074,2470.646,2023-4-15T14:50:05Z
2023-04-15T12:50:12Z,42.805,6.029,13.3021,4.60075,2470.661,2023-4-15T14:53:08Z
2023-04-15T12:53:15Z,42.805,6.029,13.3021,4.60074,2470.646,2023-4-15T14:56:11Z
2023-04-15T12:56:18Z,42.805,6.029,13.3022,4.60074,2470.67,2023-4-15T14:59:15Z
2023-04-15T12:59:21Z,42.805,6.029,13.3022,4.60074,2470.661,2023-4-15T15:02:18Z
2023-04-15T13:02:24Z,42.805,6.029,13.3021,4.60077,2470.646,2023-4-15T15:05:21Z
2023-04-15T13:05:27Z,42.805,6.029,13.3018,4.60074,2470.646,2023-4-15T15:08:24Z
2023-04-15T13:08:30Z,42.805,6.029,13.3020,4.60077,2470.661,2023-4-15T15:11:27Z
2023-04-15T13:11:33Z,42.805,6.029,13.3016,4.60074,2470.646,2023-4-15T15:14:30Z
2023-04-15T13:14:36Z,42.805,6.029,13.3018,4.60078,2470.67,2023-4-15T15:17:33Z
2023-04-15T13:17:39Z,42.805,6.029,13.3026,4.60074,2470.646,2023-4-15T15:20:36Z
2023-04-15T13:20:42Z,42.805,6.029,13.3023,4.60077,2470.646,2023-4-15T15:23:39Z
2023-04-15T13:23:46Z,42.805,6.029,13.3019,4.60074,2470.684,2023-4-15T15:26:42Z
2023-04-15T13:26:49Z,42.805,6.029,13.3019,4.60074,2470.624,2023-4-15T15:29:45Z
2023-04-15T13:29:52Z,42.805,6.029,13.3018,4.60074,2470.656,2023-4-15T15:32:49Z
2023-04-15T13:32:55Z,42.805,6.029,13.3019,4.60077,2470.661,2023-4-15T15:35:52Z
2023-04-15T13:35:58Z,42.805,6.029,13.3016,4.60072,2470.684,2023-4-15T15:38:55Z
2023-04-15T13:39:01Z,42.805,6.029,13.3020,4.60075,2470.637,2023-4-15T15:41:58Z
2023-04-15T13:42:04Z,42.805,6.029,13.3014,4.60072,2470.637,2023-4-15T15:45:01Z
2023-04-15T13:45:07Z,42.805,6.029,13.3021,4.60074,2470.646,2023-4-15T15:48:04Z
2023-04-15T13:48:10Z,42.805,6.029,13.3020,4.60074,2470.624,2023-4-15T15:51:07Z
2023-04-15T13:51:13Z,42.805,6.029,13.3021,4.60080,2470.656,2023-4-15T15:54:10Z
2023-04-15T13:54:16Z,42.805,6.029,13.3021,4.60074,2470.684,2023-4-15T15:57:13Z
2023-04-15T13:57:19Z,42.805,6.029,13.3023,4.60074,2470.646,2023-4-15T16:00:16Z
2023-04-15T14:00:23Z,42.805,6.029,13.3020,4.60074,2470.67,2023-4-15T16:03:19Z
2023-04-15T14:03:26Z,42.805,6.029,13.3021,4.60076,2470.661,2023-4-15T16:06:22Z
2023-04-15T14:06:29Z,42.805,6.029,13.3020,4.60072,2470.633,2023-4-15T16:09:26Z
2023-04-15T14:09:32Z,42.805,6.029,13.3021,4.60072,2470.661,2023-4-15T16:12:29Z
2023-04-15T14:12:35Z,42.805,6.029,13.3018,4.60072,2470.67,2023-4-15T16:15:32Z
2023-04-15T14:15:38Z,42.805,6.029,13.3019,4.60075,2470.646,2023-4-15T16:18:35Z
2023-04-15T14:18:41Z,42.805,6.029,13.3019,4.60077,2470.646,2023-4-15T16:21:38Z
2023-04-15T14:21:44Z,42.805,6.029,13.3020,4.60074,2470.646,2023-4-15T16:24:41Z
2023-04-15T14:24:47Z,42.805,6.029,13.3018,4.60075,2470.61,2023-4-15T16:27:44Z
2023-04-15T14:27:50Z,42.805,6.029,13.3019,4.60075,2470.646,2023-4-15T16:30:47Z
2023-04-15T14:30:54Z,42.805,6.029,13.3020,4.60074,2470.67,2023-4-15T16:33:51Z
2023-04-15T14:33:57Z,42.805,6.029,13.3020,4.60073,2470.646,2023-4-15T16:36:54Z
2023-04-15T14:37:00Z,42.805,6.029,13.3020,4.60073,2470.67,2023-4-15T16:39:57Z
2023-04-15T14:40:03Z,42.805,6.029,13.3019,4.60076,2470.624,2023-4-15T16:43:00Z
2023-04-15T14:43:06Z,42.805,6.029,13.3018,4.60072,2470.661,2023-4-15T16:46:03Z
2023-04-15T14:46:09Z,42.805,6.029,13.3020,4.60073,2470.646,2023-4-15T16:49:06Z
2023-04-15T14:49:12Z,42.805,6.029,13.3022,4.60074,2470.661,2023-4-15T16:52:09Z
2023-04-15T14:52:15Z,42.805,6.029,13.3026,4.60074,2470.646,2023-4-15T16:55:12Z
2023-04-15T14:55:19Z,42.805,6.029,13.3019,4.60073,2470.67,2023-4-15T16:58:15Z
2023-04-15T14:58:22Z,42.805,6.029,13.3026,4.60073,2470.67,2023-4-15T17:01:19Z
2023-04-15T15:01:25Z,42.805,6.029,13.3025,4.60074,2470.684,2023-4-15T17:04:22Z
2023-04-15T15:04:28Z,42.805,6.029,13.3024,4.60072,2470.646,2023-4-15T17:07:25Z
2023-04-15T15:07:31Z,42.805,6.029,13.3023,4.60073,2470.661,2023-4-15T17:10:28Z
2023-04-15T15:10:34Z,42.805,6.029,13.3026,4.60072,2470.684,2023-4-15T17:13:31Z